User: anonymous   Login
Location: Waldport
(44.4270°N, 124.0680°W)
Time: 00:34:28
(UTC-07:00)
Language:

Cosmos 1023 Rocket - Orbit

View from above orbital plane
View from above orbital plane
View from above satellite
View from above satellite

Ground track
Ground track

The orbit data is extracted from the following two-line orbital elements,

1 10962U 78063B   17262.90306353 -.00000014 +00000-0 +39622-5 0  9992
2 10962 074.0803 044.0626 0026232 282.1171 077.7046 14.41096079059333
Epoch (UTC): 19 September 2017 21:40:24
Eccentricity: 0.0026232
inclination: 74.0803°
perigee height: 736 km
apogee height: 773 km
right ascension of ascending node: 44.0626°
argument of perigee: 282.1171°
revolutions per day: 14.41096079
mean anomaly at epoch: 77.7046°
orbit number at epoch: 5933

The dashed part of the orbit path shows where the satellite is in the earth's shadow,  

DLR